HB9SZU-6 Weather Reports


time (UTC)temp
C
wind
direction
speed
KPH
gust
KPH
rain 1hr
cm
rain 24hr
cm
rain mn
cm
humidity
%
barometer
mb
20260503021810 18 0.0 0.0 0.00 0.00 0.00 50 1026.6
20260503020310 18 0.0 0.0 0.00 0.00 0.00 50 1026.6
20260503014810 18 0.0 0.0 0.00 0.00 0.00 50 1026.6
20260503013310 18 0.0 0.0 0.00 0.00 0.00 50 1026.6
20260503011810 18 0.0 0.0 0.00 0.00 0.00 50 1026.6
20260503010310 18 0.0 0.0 0.00 0.00 0.00 50 1026.6
20260503004810 18 0.0 0.0 0.00 0.00 0.00 50 1026.6
20260503003315 18 0.0 0.0 0.00 0.00 0.00 50 1026.6
20260503001810 18 0.0 0.0 0.00 0.00 0.00 50 1026.6
20260503000311 18 0.0 0.0 0.00 0.00 0.00 50 1026.6
20260502234810 18 0.0 0.0 0.00 0.00 0.00 50 1026.6
20260502233310 18 0.0 0.0 0.00 0.00 0.00 50 1026.6
20260502231810 18 0.0 0.0 0.00 0.00 0.00 50 1026.6
20260502230311 18 0.0 0.0 0.00 0.00 0.00 50 1026.6
20260502224810 18 0.0 0.0 0.00 0.00 0.00 50 1026.6
20260502223311 18 0.0 0.0 0.00 0.00 0.00 50 1026.6
20260502221810 18 0.0 0.0 0.00 0.00 0.00 50 1026.6
20260502220310 18 0.0 0.0 0.00 0.00 0.00 50 1026.6
20260502214810 18 0.0 0.0 0.00 0.00 0.00 50 1026.6
20260502213310 18 0.0 0.0 0.00 0.00 0.00 49 1026.4
20260502211811 18 0.0 0.0 0.00 0.00 0.00 49 1026.4
20260502210310 18 0.0 0.0 0.00 0.00 0.00 49 1026.4
20260502204810 18 0.0 0.0 0.00 0.00 0.00 48 1026.3
20260502203310 19 0.0 0.0 0.00 0.00 0.00 48 1026.3
20260502201810 20 0.0 0.0 0.00 0.00 0.00 46 1025.7
20260502200310 20 0.0 0.0 0.00 0.00 0.00 46 1025.7
20260502194810 20 0.0 0.0 0.00 0.00 0.00 46 1025.7
20260502193311 20 0.0 0.0 0.00 0.00 0.00 46 1025.7
20260502191810 20 0.0 0.0 0.00 0.00 0.00 46 1025.8
20260502190310 20 0.0 0.0 0.00 0.00 0.00 45 1025.4
20260502184810 21 0.0 0.0 0.00 0.00 0.00 45 1025.4
20260502183310 21 0.0 0.0 0.00 0.00 0.00 45 1025.2
20260502181811 21 0.0 0.0 0.00 0.00 0.00 44 1025.0
20260502180311 22 0.0 0.0 0.00 0.00 0.00 44 1024.8
20260502170310 23 0.0 0.0 0.00 0.00 0.00 40 1024.4
20260502163310 23 0.0 0.0 0.00 0.00 0.00 39 1024.5
20260502161810 23 0.0 0.0 0.00 0.00 0.00 39 1024.6
20260502160310 24 0.0 0.0 0.00 0.00 0.00 38 1024.7
20260502151810 24 0.0 0.0 0.00 0.00 0.00 38 1025.0
20260502150310 24 0.0 0.0 0.00 0.00 0.00 38 1025.1
20260502130310 23 0.0 0.0 0.00 0.00 0.00 41 1027.1
20260502123310 22 0.0 0.0 0.00 0.00 0.00 42 1027.8
20260502121810 22 0.0 0.0 0.00 0.00 0.00 43 1027.9
20260502120310 21 0.0 0.0 0.00 0.00 0.00 43 1028.2
20260502114810 21 0.0 0.0 0.00 0.00 0.00 44 1028.3
20260502113310 21 0.0 0.0 0.00 0.00 0.00 46 1028.6
20260502111810 20 0.0 0.0 0.00 0.00 0.00 47 1028.8
20260502110310 20 0.0 0.0 0.00 0.00 0.00 48 1029.3
20260502104810 20 0.0 0.0 0.00 0.00 0.00 50 1029.6
20260502103310 19 0.0 0.0 0.00 0.00 0.00 51 1030.0
20260502101810 19 0.0 0.0 0.00 0.00 0.00 53 1030.1
20260502100310 18 0.0 0.0 0.00 0.00 0.00 54 1030.4
20260502090310 16 0.0 0.0 0.00 0.00 0.00 62 1031.5
20260502070310 12 0.0 0.0 0.00 0.00 0.00 66 1032.3
20260502064810 12 0.0 0.0 0.00 0.00 0.00 66 1032.5
20260502063310 11 0.0 0.0 0.00 0.00 0.00 65 1032.6
20260502061810 11 0.0 0.0 0.00 0.00 0.00 65 1032.5
20260502060310 11 0.0 0.0 0.00 0.00 0.00 65 1032.6
20260502054810 11 0.0 0.0 0.00 0.00 0.00 65 1032.9
20260502053310 11 0.0 0.0 0.00 0.00 0.00 65 1032.7
20260502051810 11 0.0 0.0 0.00 0.00 0.00 64 1032.6
20260502050310 11 0.0 0.0 0.00 0.00 0.00 64 1032.7
20260502044810 11 0.0 0.0 0.00 0.00 0.00 64 1032.6
20260502043310 11 0.0 0.0 0.00 0.00 0.00 63 1032.5
20260502041810 11 0.0 0.0 0.00 0.00 0.00 63 1032.4
20260502040310 11 0.0 0.0 0.00 0.00 0.00 63 1032.4
20260502034810 11 0.0 0.0 0.00 0.00 0.00 63 1032.3
20260502033310 12 0.0 0.0 0.00 0.00 0.00 62 1032.2
20260502031810 12 0.0 0.0 0.00 0.00 0.00 62 1032.3
20260502030310 12 0.0 0.0 0.00 0.00 0.00 61 1032.1
20260502024810 12 0.0 0.0 0.00 0.00 0.00 61 1032.1
20260502023310 12 0.0 0.0 0.00 0.00 0.00 61 1032.1